FENGYUN 1C DEB

Satellite information

Favourite Embed

Satellite Type and Status

DEBRISIN ORBIT

Key statistics

Satellite FENGYUN 1C DEB at a glance.

Uptime

9661

Days in orbit

Revolutions

≈ 14.3

Per day

Orbit

SSO

Sun Synchronous Orbit

Inclination

98.8

Latest

Satellite identification and parameters

Extended collection of information and parameters for FENGYUN 1C DEB.

Object identification

Identified? True

Debris? True

Object name: FENGYUN 1C DEB

International designator: 1999-025KT

Object number (NORAD): 29969

Object ID (CCSDS): 29969

Country: PEOPLES REPUBLIC OF CHINA (PRC)

Current information (Y/N): Y

RCS size: SMALL

Orbital parameters

Period: 100.526 minutes

Inclination: 98.774 deg

SMA: 7161.622 km

Apoapsis: 815.556 km

Periapsis: 751.418 km

RAAN: 17.5393 deg

Eccentricy: 0.00447795

Argument of periapsis: 202.7969 deg

Mean anomaly: 250.3594 deg

Mean motion: 14.32470453 rev/day

Mean motion (dot): 0.00007568 rev/day2

B* drag term: 0.002777406 1/REarth

Two-line elements (TLE)

Creation date: Oct. 21, 2025, 3:26 a.m.

Reference frame: TEME

Reference center: EARTH

Epoch: Oct. 20, 2025, 9:10 p.m. UTC

TLE line 0: 0 FENGYUN 1C DEB

TLE line 1: 1 29969U 99025KT 25293.88226100 .00007568 00000-0 27774-2 0 9993

TLE line 2: 2 29969 98.7740 17.5393 0044780 202.7969 250.3594 14.32470453969058

Live tracking on map

Real-time ground track for satellite FENGYUN 1C DEB.

In-orbit conjunctions

A list of the most updated potential collisions computed for object FENGYUN 1C DEB.

Target Orbit TCA Probability of collision Miss distance Type
COSMOS 1302 LEO 2025-09-05 23:58:24 0.0003895904 100.0 (m) PAYLOAD
COSMOS 1867 COOLANT LEO 2025-05-18 19:00:30 0.0003558516 108.0 (m) DEBRIS
SL-3 R/B LEO 2025-05-04 23:28:09 0.001024491 69.0 (m) ROCKET BODY
CZ-6A DEB LEO 2025-02-14 16:20:54 0.0001256106 772.0 (m) DEBRIS
CZ-6A DEB LEO 2024-12-29 10:07:57 0.000268873 927.0 (m) DEBRIS

Associated space launch

Chinese polar orbiting meteorological satellite

FENGYUN 1C DEB was lifted into orbit during the mission ‘Long March 4B | Feng Yun 1C’, on board a Long March 4B space rocket.

The launch took place on May 10, 1999, 1:33 a.m. from Launch Complex 7.

For more information about the launch, click the button.

Launch to space Long March 4B | Feng Yun 1C
Long March 4B | Feng Yun 1C

Agency: N/A

Status: Launch Successful

Launch date: May 10, 1999, 1:33 a.m. UTC

Rocket: Long March 4B

Launch pad: Launch Complex 7

Location: Taiyuan Satellite Launch Center, People's Republic of China

...

Latest news about this satellite

There are no fresh news available about this satellite. Check back as we update our databases every day.


Newsletter sign-up

Weekly statistics, charts and insights to help you stay on top of the space industry.